Time,TemperatureF,DewpointF,PressureIn,WindDirection,WindDirectionDegrees,WindSpeedMPH,WindSpeedGustMPH,Humidity,HourlyPrecipIn,Conditions,Clouds,dailyrainin,SoftwareType,DateUTC
2013-01-17 00:00:00,31.4,30.4,29.78,SW,216,0.0,3.0,96,0.00,,---,0.00,VWS V14.01,2013-01-17 05:00:00,
2013-01-17 00:01:00,31.3,30.3,29.77,SW,216,0.0,1.0,96,0.00,,---,0.00,VWS V14.01,2013-01-17 05:01:00,
2013-01-17 00:02:00,31.2,29.9,29.77,SW,216,0.0,1.0,95,0.00,,---,0.00,VWS V14.01,2013-01-17 05:02:00,
2013-01-17 00:03:00,31.2,29.9,29.77,SW,216,0.0,0.0,95,0.00,,---,0.00,VWS V14.01,2013-01-17 05:03:00,
2013-01-17 00:04:00,31.2,29.9,29.77,SW,216,0.0,0.0,95,0.00,,---,0.00,VWS V14.01,2013-01-17 05:04:00,
2013-01-17 00:05:00,31.2,29.9,29.77,SW,216,0.0,1.0,95,0.00,,---,0.00,VWS V14.01,2013-01-17 05:05:00,
2013-01-17 00:09:00,31.1,29.8,29.78,SW,216,1.0,2.0,95,0.00,,---,0.00,VWS V14.01,2013-01-17 05:09:00,
2013-01-17 00:10:00,31.1,29.8,29.78,SW,216,0.0,0.0,95,0.00,,---,0.00,VWS V14.01,2013-01-17 05:10:00,
2013-01-17 00:14:00,31.0,29.7,29.78,SW,216,0.0,0.0,95,0.00,,---,0.00,VWS V14.01,2013-01-17 05:14:00,
2013-01-17 00:15:00,31.0,29.7,29.78,SW,216,0.0,2.0,95,0.00,,---,0.00,VWS V14.01,2013-01-17 05:15:00,
2013-01-17 00:19:00,30.9,29.9,29.78,SW,216,0.0,0.0,96,0.00,,---,0.00,VWS V14.01,2013-01-17 05:19:00,
2013-01-17 00:20:00,30.9,29.9,29.78,SW,216,0.0,1.0,96,0.00,,---,0.00,VWS V14.01,2013-01-17 05:20:00,
2013-01-17 00:24:00,30.7,29.7,29.78,SW,216,0.0,0.0,96,0.00,,---,0.00,VWS V14.01,2013-01-17 05:24:00,
2013-01-17 00:25:00,30.8,29.8,29.78,SW,216,0.0,3.0,96,0.00,,---,0.00,VWS V14.01,2013-01-17 05:25:00,
2013-01-17 00:29:00,30.6,29.3,29.78,SW,216,0.0,0.0,95,0.00,,---,0.00,VWS V14.01,2013-01-17 05:29:00,
2013-01-17 00:30:00,30.6,29.3,29.78,SW,216,0.0,1.0,95,0.00,,---,0.00,VWS V14.01,2013-01-17 05:30:00,
2013-01-17 00:34:00,30.5,29.2,29.78,SW,216,1.0,1.0,95,0.00,,---,0.00,VWS V14.01,2013-01-17 05:34:00,
2013-01-17 00:35:00,30.5,29.2,29.78,SW,216,0.0,2.0,95,0.00,,---,0.00,VWS V14.01,2013-01-17 05:35:00,
2013-01-17 00:39:00,30.4,29.1,29.79,SSW,198,2.0,3.0,95,0.00,,---,0.00,VWS V14.01,2013-01-17 05:39:00,
2013-01-17 00:40:00,30.5,29.2,29.78,SSW,198,0.0,4.0,95,0.00,,---,0.00,VWS V14.01,2013-01-17 05:40:00,
2013-01-17 00:44:00,30.4,29.4,29.79,SW,225,2.0,2.0,96,0.00,,---,0.00,VWS V14.01,2013-01-17 05:44:00,
2013-01-17 00:45:00,30.4,29.4,29.79,SW,225,0.0,3.0,96,0.00,,---,0.00,VWS V14.01,2013-01-17 05:45:00,
2013-01-17 00:49:00,30.4,29.4,29.79,SSW,211,0.0,3.0,96,0.00,,---,0.00,VWS V14.01,2013-01-17 05:49:00,
2013-01-17 00:50:00,30.3,29.3,29.79,SSW,211,0.0,2.0,96,0.00,,---,0.00,VWS V14.01,2013-01-17 05:50:00,
2013-01-17 00:54:00,30.3,29.3,29.79,SSW,211,0.0,0.0,96,0.00,,---,0.00,VWS V14.01,2013-01-17 05:54:00,
2013-01-17 00:55:00,30.3,29.3,29.79,SSW,211,0.0,3.0,96,0.00,,---,0.00,VWS V14.01,2013-01-17 05:55:00,
2013-01-17 01:00:00,30.3,29.3,29.79,SSW,211,0.0,0.0,96,0.00,,---,0.00,VWS V14.01,2013-01-17 06:00:00,
2013-01-17 01:05:00,30.2,29.2,29.79,SSW,211,0.0,1.0,96,0.00,,---,0.00,VWS V14.01,2013-01-17 06:05:00,
2013-01-17 01:10:00,30.2,29.2,29.79,SSW,211,0.0,0.0,96,0.00,,---,0.00,VWS V14.01,2013-01-17 06:10:00,
2013-01-17 01:15:00,30.1,29.1,29.79,SSW,211,2.0,2.0,96,0.00,,---,0.00,VWS V14.01,2013-01-17 06:15:00,
2013-01-17 01:20:00,30.0,29.0,29.80,SSW,211,0.0,1.0,96,0.00,,---,0.00,VWS V14.01,2013-01-17 06:20:00,
2013-01-17 01:25:00,29.8,28.8,29.80,SSW,211,0.0,0.0,96,0.00,,---,0.00,VWS V14.01,2013-01-17 06:25:00,
2013-01-17 01:30:00,29.7,28.7,29.80,SSW,211,0.0,1.0,96,0.00,,---,0.00,VWS V14.01,2013-01-17 06:30:00,
2013-01-17 01:35:00,29.6,28.6,29.80,SSW,211,0.0,2.0,96,0.00,,---,0.00,VWS V14.01,2013-01-17 06:35:00,
2013-01-17 01:40:00,29.5,28.2,29.80,SSW,211,0.0,1.0,95,0.00,,---,0.00,VWS V14.01,2013-01-17 06:40:00,
2013-01-17 01:45:00,29.4,28.1,29.80,SSW,211,0.0,1.0,95,0.00,,---,0.00,VWS V14.01,2013-01-17 06:45:00,
2013-01-17 01:50:00,29.3,28.3,29.80,SSW,211,0.0,0.0,96,0.00,,---,0.00,VWS V14.01,2013-01-17 06:50:00,
2013-01-17 01:55:00,29.2,28.2,29.80,SW,232,0.0,2.0,96,0.00,,---,0.00,VWS V14.01,2013-01-17 06:55:00,
2013-01-17 02:00:00,29.0,27.8,29.80,SW,232,0.0,1.0,95,0.00,,---,0.00,VWS V14.01,2013-01-17 07:00:00,
2013-01-17 02:05:00,28.9,27.6,29.80,SW,232,0.0,0.0,95,0.00,,---,0.00,VWS V14.01,2013-01-17 07:05:00,
2013-01-17 02:10:00,28.8,27.5,29.80,SW,232,0.0,0.0,95,0.00,,---,0.00,VWS V14.01,2013-01-17 07:10:00,
2013-01-17 02:15:00,28.7,27.7,29.80,SW,232,0.0,0.0,96,0.00,,---,0.00,VWS V14.01,2013-01-17 07:15:00,
2013-01-17 02:20:00,28.6,27.6,29.81,SW,232,0.0,1.0,96,0.00,,---,0.00,VWS V14.01,2013-01-17 07:20:00,
2013-01-17 02:25:00,28.5,27.5,29.80,SW,232,0.0,1.0,96,0.00,,---,0.00,VWS V14.01,2013-01-17 07:25:00,
2013-01-17 02:30:00,28.4,27.4,29.80,SW,232,1.0,2.0,96,0.00,,---,0.00,VWS V14.01,2013-01-17 07:30:00,
2013-01-17 02:35:00,28.3,27.0,29.80,SW,232,0.0,1.0,95,0.00,,---,0.00,VWS V14.01,2013-01-17 07:35:00,
2013-01-17 02:40:00,28.2,27.0,29.80,SW,232,0.0,1.0,95,0.00,,---,0.00,VWS V14.01,2013-01-17 07:40:00,
2013-01-17 02:41:00,28.2,27.0,29.81,SW,232,0.0,1.0,95,0.00,,---,0.00,VWS V14.01,2013-01-17 07:41:00,
2013-01-17 02:45:00,28.2,27.0,29.80,SW,232,0.0,1.0,95,0.00,,---,0.00,VWS V14.01,2013-01-17 07:45:00,
2013-01-17 02:46:00,28.2,27.0,29.80,SW,232,0.0,2.0,95,0.00,,---,0.00,VWS V14.01,2013-01-17 07:46:00,
2013-01-17 02:50:00,28.2,27.0,29.80,SW,232,0.0,2.0,95,0.00,,---,0.00,VWS V14.01,2013-01-17 07:50:00,
2013-01-17 02:51:00,28.2,27.0,29.80,SW,232,0.0,0.0,95,0.00,,---,0.00,VWS V14.01,2013-01-17 07:51:00,
2013-01-17 02:55:00,28.2,27.0,29.80,SW,232,1.0,1.0,95,0.00,,---,0.00,VWS V14.01,2013-01-17 07:55:00,
2013-01-17 02:56:00,28.2,27.0,29.80,SW,232,0.0,3.0,95,0.00,,---,0.00,VWS V14.01,2013-01-17 07:56:00,
2013-01-17 03:00:00,28.2,27.0,29.80,SW,232,0.0,3.0,95,0.00,,---,0.00,VWS V14.01,2013-01-17 08:00:00,
2013-01-17 03:01:00,28.2,27.0,29.80,SW,235,0.0,1.0,95,0.00,,---,0.00,VWS V14.01,2013-01-17 08:01:00,
2013-01-17 03:05:00,28.2,27.0,29.80,SW,235,0.0,1.0,95,0.00,,---,0.00,VWS V14.01,2013-01-17 08:05:00,
2013-01-17 03:06:00,28.2,27.0,29.79,SSW,208,0.0,3.0,95,0.00,,---,0.00,VWS V14.01,2013-01-17 08:06:00,
2013-01-17 03:10:00,28.0,27.0,29.79,SSW,208,0.0,3.0,96,0.00,,---,0.00,VWS V14.01,2013-01-17 08:10:00,
2013-01-17 03:11:00,28.0,27.0,29.79,SSW,208,0.0,0.0,96,0.00,,---,0.00,VWS V14.01,2013-01-17 08:11:00,
2013-01-17 03:15:00,28.0,27.0,29.79,SSW,208,0.0,0.0,96,0.00,,---,0.00,VWS V14.01,2013-01-17 08:15:00,
2013-01-17 03:16:00,28.0,27.0,29.79,SSW,208,0.0,1.0,96,0.00,,---,0.00,VWS V14.01,2013-01-17 08:16:00,
2013-01-17 03:20:00,27.9,26.9,29.79,SSW,208,0.0,1.0,96,0.00,,---,0.00,VWS V14.01,2013-01-17 08:20:00,
2013-01-17 03:21:00,27.9,26.9,29.79,SSW,208,0.0,0.0,96,0.00,,---,0.00,VWS V14.01,2013-01-17 08:21:00,
2013-01-17 03:25:00,27.9,26.9,29.79,SSW,208,0.0,0.0,96,0.00,,---,0.00,VWS V14.01,2013-01-17 08:25:00,
2013-01-17 03:26:00,27.8,26.8,29.79,SSW,208,0.0,0.0,96,0.00,,---,0.00,VWS V14.01,2013-01-17 08:26:00,
2013-01-17 03:30:00,27.8,26.8,29.79,SSW,208,0.0,0.0,96,0.00,,---,0.00,VWS V14.01,2013-01-17 08:30:00,
2013-01-17 03:31:00,27.8,26.6,29.79,SSW,208,0.0,0.0,95,0.00,,---,0.00,VWS V14.01,2013-01-17 08:31:00,
2013-01-17 03:35:00,27.8,26.6,29.79,SSW,208,0.0,0.0,95,0.00,,---,0.00,VWS V14.01,2013-01-17 08:35:00,
2013-01-17 03:36:00,27.6,26.6,29.79,SSW,208,0.0,0.0,96,0.00,,---,0.00,VWS V14.01,2013-01-17 08:36:00,
2013-01-17 03:40:00,27.6,26.6,29.79,SSW,208,0.0,0.0,96,0.00,,---,0.00,VWS V14.01,2013-01-17 08:40:00,
2013-01-17 03:42:00,27.5,26.5,29.79,SSW,208,0.0,1.0,96,0.00,,---,0.00,VWS V14.01,2013-01-17 08:42:00,
2013-01-17 03:45:00,27.5,26.5,29.79,SSW,208,0.0,1.0,96,0.00,,---,0.00,VWS V14.01,2013-01-17 08:45:00,
2013-01-17 03:47:00,27.4,26.4,29.80,SSW,208,0.0,0.0,96,0.00,,---,0.00,VWS V14.01,2013-01-17 08:47:00,
2013-01-17 03:50:00,27.4,26.4,29.80,SSW,208,1.0,1.0,96,0.00,,---,0.00,VWS V14.01,2013-01-17 08:50:00,
2013-01-17 03:52:00,27.3,26.1,29.79,SSW,208,0.0,1.0,95,0.00,,---,0.00,VWS V14.01,2013-01-17 08:52:00,
2013-01-17 03:55:00,27.3,26.1,29.79,SSW,208,0.0,1.0,95,0.00,,---,0.00,VWS V14.01,2013-01-17 08:55:00,
2013-01-17 03:57:00,27.1,25.9,29.79,SSW,208,0.0,2.0,95,0.00,,---,0.00,VWS V14.01,2013-01-17 08:57:00,
2013-01-17 04:00:00,27.1,25.9,29.79,SSW,208,0.0,2.0,95,0.00,,---,0.00,VWS V14.01,2013-01-17 09:00:00,
2013-01-17 04:02:00,27.0,25.8,29.79,SSW,207,0.0,0.0,95,0.00,,---,0.00,VWS V14.01,2013-01-17 09:02:00,
2013-01-17 04:05:00,27.0,25.8,29.79,SSW,207,0.0,0.0,95,0.00,,---,0.00,VWS V14.01,2013-01-17 09:05:00,
2013-01-17 04:07:00,27.0,26.0,29.79,SSW,207,0.0,2.0,96,0.00,,---,0.00,VWS V14.01,2013-01-17 09:07:00,
2013-01-17 04:10:00,27.0,26.0,29.79,SSW,207,0.0,2.0,96,0.00,,---,0.00,VWS V14.01,2013-01-17 09:10:00,
2013-01-17 04:12:00,27.0,26.0,29.79,SSW,207,0.0,0.0,96,0.00,,---,0.00,VWS V14.01,2013-01-17 09:12:00,
2013-01-17 04:15:00,27.0,26.0,29.79,SSW,207,0.0,0.0,96,0.00,,---,0.00,VWS V14.01,2013-01-17 09:15:00,
2013-01-17 04:17:00,27.0,26.0,29.78,SSW,207,0.0,0.0,96,0.00,,---,0.00,VWS V14.01,2013-01-17 09:17:00,
2013-01-17 04:20:00,26.9,25.9,29.78,SSW,207,0.0,0.0,96,0.00,,---,0.00,VWS V14.01,2013-01-17 09:20:00,
2013-01-17 04:22:00,26.9,25.9,29.79,SSW,207,0.0,0.0,96,0.00,,---,0.00,VWS V14.01,2013-01-17 09:22:00,
2013-01-17 04:25:00,26.9,25.9,29.79,SSW,207,0.0,0.0,96,0.00,,---,0.00,VWS V14.01,2013-01-17 09:25:00,
2013-01-17 04:27:00,26.8,25.8,29.78,SSW,207,0.0,0.0,96,0.00,,---,0.00,VWS V14.01,2013-01-17 09:27:00,
2013-01-17 04:30:00,26.8,25.8,29.78,SSW,207,0.0,0.0,96,0.00,,---,0.00,VWS V14.01,2013-01-17 09:30:00,
2013-01-17 04:32:00,26.8,25.6,29.78,SSW,207,0.0,0.0,95,0.00,,---,0.00,VWS V14.01,2013-01-17 09:32:00,
2013-01-17 04:35:00,26.8,25.8,29.78,SSW,207,0.0,0.0,96,0.00,,---,0.00,VWS V14.01,2013-01-17 09:35:00,
2013-01-17 04:37:00,26.7,25.5,29.78,SSW,207,0.0,0.0,95,0.00,,---,0.00,VWS V14.01,2013-01-17 09:37:00,
2013-01-17 04:40:00,26.7,25.5,29.78,SSW,207,0.0,0.0,95,0.00,,---,0.00,VWS V14.01,2013-01-17 09:40:00,
2013-01-17 04:42:00,26.6,25.4,29.77,SSW,207,0.0,0.0,95,0.00,,---,0.00,VWS V14.01,2013-01-17 09:42:00,
2013-01-17 04:45:00,26.6,25.4,29.77,SSW,207,0.0,0.0,95,0.00,,---,0.00,VWS V14.01,2013-01-17 09:45:00,
2013-01-17 04:47:00,26.5,25.3,29.78,SSW,207,0.0,0.0,95,0.00,,---,0.00,VWS V14.01,2013-01-17 09:47:00,
2013-01-17 04:50:00,26.5,25.3,29.78,SSW,207,0.0,0.0,95,0.00,,---,0.00,VWS V14.01,2013-01-17 09:50:00,
2013-01-17 04:53:00,26.5,25.5,29.77,SSW,207,0.0,1.0,96,0.00,,---,0.00,VWS V14.01,2013-01-17 09:53:00,
2013-01-17 04:55:00,26.5,25.5,29.77,SSW,207,0.0,1.0,96,0.00,,---,0.00,VWS V14.01,2013-01-17 09:55:00,
2013-01-17 04:58:00,26.4,25.4,29.78,SSW,207,0.0,1.0,96,0.00,,---,0.00,VWS V14.01,2013-01-17 09:58:00,
2013-01-17 05:00:00,26.4,25.4,29.78,SSW,207,0.0,1.0,96,0.00,,---,0.00,VWS V14.01,2013-01-17 10:00:00,
2013-01-17 05:03:00,26.3,25.3,29.79,SSW,207,0.0,0.0,96,0.00,,---,0.00,VWS V14.01,2013-01-17 10:03:00,
2013-01-17 05:05:00,26.3,25.3,29.79,SSW,207,0.0,0.0,96,0.00,,---,0.00,VWS V14.01,2013-01-17 10:05:00,
2013-01-17 05:08:00,26.4,25.4,29.79,SW,236,0.0,2.0,96,0.00,,---,0.00,VWS V14.01,2013-01-17 10:08:00,
2013-01-17 05:10:00,26.4,25.4,29.79,SW,236,0.0,2.0,96,0.00,,---,0.00,VWS V14.01,2013-01-17 10:10:00,
2013-01-17 05:13:00,26.5,25.5,29.79,SW,236,0.0,0.0,96,0.00,,---,0.00,VWS V14.01,2013-01-17 10:13:00,
2013-01-17 05:15:00,26.5,25.5,29.79,SW,236,0.0,0.0,96,0.00,,---,0.00,VWS V14.01,2013-01-17 10:15:00,
2013-01-17 05:18:00,26.5,25.5,29.80,SW,236,0.0,0.0,96,0.00,,---,0.00,VWS V14.01,2013-01-17 10:18:00,
2013-01-17 05:20:00,26.5,25.5,29.80,SW,236,0.0,0.0,96,0.00,,---,0.00,VWS V14.01,2013-01-17 10:20:00,
2013-01-17 05:23:00,26.5,25.5,29.80,SW,236,0.0,0.0,96,0.00,,---,0.00,VWS V14.01,2013-01-17 10:23:00,
2013-01-17 05:25:00,26.5,25.5,29.80,SW,236,0.0,0.0,96,0.00,,---,0.00,VWS V14.01,2013-01-17 10:25:00,
2013-01-17 05:28:00,26.5,25.5,29.80,SW,236,0.0,0.0,96,0.00,,---,0.00,VWS V14.01,2013-01-17 10:28:00,
2013-01-17 05:30:00,26.5,25.5,29.80,SW,236,0.0,0.0,96,0.00,,---,0.00,VWS V14.01,2013-01-17 10:30:00,
2013-01-17 05:33:00,26.5,25.5,29.80,SW,236,0.0,1.0,96,0.00,,---,0.00,VWS V14.01,2013-01-17 10:33:00,
2013-01-17 05:35:00,26.5,25.5,29.80,SW,236,0.0,1.0,96,0.00,,---,0.00,VWS V14.01,2013-01-17 10:35:00,
2013-01-17 05:38:00,26.5,25.5,29.80,SW,236,0.0,1.0,96,0.00,,---,0.00,VWS V14.01,2013-01-17 10:38:00,
2013-01-17 05:40:00,26.5,25.5,29.80,SW,236,0.0,1.0,96,0.00,,---,0.00,VWS V14.01,2013-01-17 10:40:00,
2013-01-17 05:43:00,26.5,25.5,29.81,SW,236,0.0,1.0,96,0.00,,---,0.00,VWS V14.01,2013-01-17 10:43:00,
2013-01-17 05:45:00,26.5,25.5,29.81,SW,236,0.0,1.0,96,0.00,,---,0.00,VWS V14.01,2013-01-17 10:45:00,
2013-01-17 05:48:00,26.4,25.4,29.81,SW,236,0.0,0.0,96,0.00,,---,0.00,VWS V14.01,2013-01-17 10:48:00,
2013-01-17 05:50:00,26.4,25.4,29.81,SW,236,0.0,0.0,96,0.00,,---,0.00,VWS V14.01,2013-01-17 10:50:00,
2013-01-17 05:53:00,26.3,25.3,29.81,SW,236,0.0,1.0,96,0.00,,---,0.00,VWS V14.01,2013-01-17 10:53:00,
2013-01-17 05:55:00,26.3,25.3,29.81,SW,236,0.0,1.0,96,0.00,,---,0.00,VWS V14.01,2013-01-17 10:55:00,
2013-01-17 05:58:00,26.3,25.1,29.82,SW,236,1.0,1.0,95,0.00,,---,0.00,VWS V14.01,2013-01-17 10:58:00,
2013-01-17 06:00:00,26.3,25.1,29.82,SW,236,1.0,1.0,95,0.00,,---,0.00,VWS V14.01,2013-01-17 11:00:00,
2013-01-17 06:03:00,26.2,25.0,29.82,SW,236,0.0,1.0,95,0.00,,---,0.00,VWS V14.01,2013-01-17 11:03:00,
2013-01-17 06:05:00,26.2,25.0,29.82,SW,236,0.0,1.0,95,0.00,,---,0.00,VWS V14.01,2013-01-17 11:05:00,
2013-01-17 06:08:00,26.1,24.9,29.82,SW,234,0.0,3.0,95,0.00,,---,0.00,VWS V14.01,2013-01-17 11:08:00,
2013-01-17 06:10:00,26.1,24.9,29.82,SW,234,0.0,3.0,95,0.00,,---,0.00,VWS V14.01,2013-01-17 11:10:00,
2013-01-17 06:13:00,26.0,24.8,29.82,SW,234,0.0,0.0,95,0.00,,---,0.00,VWS V14.01,2013-01-17 11:13:00,
2013-01-17 06:15:00,26.0,24.8,29.82,SW,234,0.0,0.0,95,0.00,,---,0.00,VWS V14.01,2013-01-17 11:15:00,
2013-01-17 06:18:00,26.0,24.8,29.82,SW,234,0.0,1.0,95,0.00,,---,0.00,VWS V14.01,2013-01-17 11:18:00,
2013-01-17 06:20:00,26.0,24.8,29.82,SW,234,0.0,1.0,95,0.00,,---,0.00,VWS V14.01,2013-01-17 11:20:00,
2013-01-17 06:23:00,26.0,25.0,29.82,SW,234,0.0,1.0,96,0.00,,---,0.00,VWS V14.01,2013-01-17 11:23:00,
2013-01-17 06:25:00,26.0,25.0,29.82,SW,234,0.0,1.0,96,0.00,,---,0.00,VWS V14.01,2013-01-17 11:25:00,
2013-01-17 06:28:00,26.0,25.0,29.82,SW,234,0.0,0.0,96,0.00,,---,0.00,VWS V14.01,2013-01-17 11:28:00,
2013-01-17 06:30:00,26.0,25.0,29.82,SW,234,0.0,0.0,96,0.00,,---,0.00,VWS V14.01,2013-01-17 11:30:00,
2013-01-17 06:33:00,25.9,24.9,29.82,SW,234,0.0,1.0,96,0.00,,---,0.00,VWS V14.01,2013-01-17 11:33:00,
2013-01-17 06:35:00,25.9,24.9,29.82,SW,234,0.0,1.0,96,0.00,,---,0.00,VWS V14.01,2013-01-17 11:35:00,
2013-01-17 06:38:00,25.8,24.8,29.83,SW,234,0.0,1.0,96,0.00,,---,0.00,VWS V14.01,2013-01-17 11:38:00,
2013-01-17 06:40:00,25.8,24.8,29.83,SW,234,0.0,1.0,96,0.00,,---,0.00,VWS V14.01,2013-01-17 11:40:00,
2013-01-17 06:43:00,25.8,24.8,29.83,SW,234,0.0,0.0,96,0.00,,---,0.00,VWS V14.01,2013-01-17 11:43:00,
2013-01-17 06:45:00,25.8,24.8,29.83,SW,234,0.0,0.0,96,0.00,,---,0.00,VWS V14.01,2013-01-17 11:45:00,
2013-01-17 06:48:00,25.8,24.8,29.83,SW,234,0.0,0.0,96,0.00,,---,0.00,VWS V14.01,2013-01-17 11:48:00,
2013-01-17 06:50:00,25.8,24.8,29.83,SW,234,0.0,0.0,96,0.00,,---,0.00,VWS V14.01,2013-01-17 11:50:00,
2013-01-17 06:53:00,25.8,24.8,29.83,SW,234,0.0,0.0,96,0.00,,---,0.00,VWS V14.01,2013-01-17 11:53:00,
2013-01-17 06:55:00,25.8,24.8,29.83,SW,234,0.0,0.0,96,0.00,,---,0.00,VWS V14.01,2013-01-17 11:55:00,
2013-01-17 06:58:00,25.7,24.7,29.83,SW,234,0.0,0.0,96,0.00,,---,0.00,VWS V14.01,2013-01-17 11:58:00,
2013-01-17 07:00:00,25.7,24.7,29.83,SW,234,0.0,0.0,96,0.00,,---,0.00,VWS V14.01,2013-01-17 12:00:00,
2013-01-17 07:03:00,25.7,24.5,29.84,SW,234,0.0,0.0,95,0.00,,---,0.00,VWS V14.01,2013-01-17 12:03:00,
2013-01-17 07:05:00,25.6,24.4,29.84,SW,234,0.0,0.0,95,0.00,,---,0.00,VWS V14.01,2013-01-17 12:05:00,
2013-01-17 07:08:00,25.6,24.4,29.84,SW,234,0.0,0.0,95,0.00,,---,0.00,VWS V14.01,2013-01-17 12:08:00,
2013-01-17 07:10:00,25.6,24.4,29.84,SW,234,0.0,0.0,95,0.00,,---,0.00,VWS V14.01,2013-01-17 12:10:00,
2013-01-17 07:13:00,25.6,24.4,29.84,SW,234,0.0,0.0,95,0.00,,---,0.00,VWS V14.01,2013-01-17 12:13:00,
2013-01-17 07:15:00,25.6,24.4,29.84,SW,234,0.0,0.0,95,0.00,,---,0.00,VWS V14.01,2013-01-17 12:15:00,
2013-01-17 07:18:00,25.5,24.3,29.85,SW,234,0.0,0.0,95,0.00,,---,0.00,VWS V14.01,2013-01-17 12:18:00,
2013-01-17 07:20:00,25.6,24.4,29.85,SW,234,0.0,0.0,95,0.00,,---,0.00,VWS V14.01,2013-01-17 12:20:00,
2013-01-17 07:23:00,25.5,24.3,29.85,SW,234,0.0,0.0,95,0.00,,---,0.00,VWS V14.01,2013-01-17 12:23:00,
2013-01-17 07:25:00,25.5,24.3,29.85,SW,234,0.0,0.0,95,0.00,,---,0.00,VWS V14.01,2013-01-17 12:25:00,
2013-01-17 07:28:00,25.5,24.3,29.85,SW,234,0.0,0.0,95,0.00,,---,0.00,VWS V14.01,2013-01-17 12:28:00,
2013-01-17 07:30:00,25.5,24.3,29.85,SW,234,0.0,0.0,95,0.00,,---,0.00,VWS V14.01,2013-01-17 12:30:00,
2013-01-17 07:34:00,25.6,24.4,29.86,SW,234,0.0,0.0,95,0.00,,---,0.00,VWS V14.01,2013-01-17 12:34:00,
2013-01-17 07:35:00,25.6,24.4,29.85,SW,234,0.0,0.0,95,0.00,,---,0.00,VWS V14.01,2013-01-17 12:35:00,
2013-01-17 07:39:00,25.6,24.6,29.86,SW,234,0.0,0.0,96,0.00,,---,0.00,VWS V14.01,2013-01-17 12:39:00,
2013-01-17 07:40:00,25.6,24.4,29.86,SW,234,0.0,0.0,95,0.00,,---,0.00,VWS V14.01,2013-01-17 12:40:00,
2013-01-17 07:44:00,25.6,24.6,29.87,SW,234,0.0,0.0,96,0.00,,---,0.00,VWS V14.01,2013-01-17 12:44:00,
2013-01-17 07:45:00,25.6,24.6,29.87,SW,234,0.0,0.0,96,0.00,,---,0.00,VWS V14.01,2013-01-17 12:45:00,
2013-01-17 07:49:00,25.7,24.7,29.87,SW,234,0.0,0.0,96,0.00,,---,0.00,VWS V14.01,2013-01-17 12:49:00,
2013-01-17 07:50:00,25.7,24.7,29.87,SW,234,0.0,1.0,96,0.00,,---,0.00,VWS V14.01,2013-01-17 12:50:00,
2013-01-17 07:54:00,25.8,24.8,29.87,SW,234,0.0,0.0,96,0.00,,---,0.00,VWS V14.01,2013-01-17 12:54:00,
2013-01-17 07:55:00,25.8,24.8,29.87,SW,234,0.0,0.0,96,0.00,,---,0.00,VWS V14.01,2013-01-17 12:55:00,
2013-01-17 07:59:00,26.0,25.0,29.87,SW,234,0.0,1.0,96,0.00,,---,0.00,VWS V14.01,2013-01-17 12:59:00,
2013-01-17 08:00:00,26.0,25.0,29.87,SW,234,1.0,1.0,96,0.00,,---,0.00,VWS V14.01,2013-01-17 13:00:00,
2013-01-17 08:04:00,26.1,25.1,29.88,SW,234,0.0,0.0,96,0.00,,---,0.00,VWS V14.01,2013-01-17 13:04:00,
2013-01-17 08:05:00,26.1,25.1,29.88,SW,234,0.0,1.0,96,0.00,,---,0.00,VWS V14.01,2013-01-17 13:05:00,
2013-01-17 08:09:00,26.3,25.3,29.87,SW,234,0.0,0.0,96,0.00,,---,0.00,VWS V14.01,2013-01-17 13:09:00,
2013-01-17 08:10:00,26.2,25.2,29.87,SW,234,0.0,0.0,96,0.00,,---,0.00,VWS V14.01,2013-01-17 13:10:00,
2013-01-17 08:14:00,26.6,25.6,29.88,SW,234,0.0,0.0,96,0.00,,---,0.00,VWS V14.01,2013-01-17 13:14:00,
2013-01-17 08:15:00,26.5,25.5,29.87,SW,234,0.0,0.0,96,0.00,,---,0.00,VWS V14.01,2013-01-17 13:15:00,
2013-01-17 08:19:00,26.9,25.9,29.88,SW,234,0.0,0.0,96,0.00,,---,0.00,VWS V14.01,2013-01-17 13:19:00,
2013-01-17 08:20:00,26.9,25.9,29.88,SW,234,0.0,2.0,96,0.00,,---,0.00,VWS V14.01,2013-01-17 13:20:00,
2013-01-17 08:24:00,27.0,26.0,29.88,SW,234,0.0,0.0,96,0.00,,---,0.00,VWS V14.01,2013-01-17 13:24:00,
2013-01-17 08:25:00,27.0,26.0,29.88,SW,234,0.0,0.0,96,0.00,,---,0.00,VWS V14.01,2013-01-17 13:25:00,
2013-01-17 08:29:00,27.2,26.2,29.88,SW,234,0.0,0.0,96,0.00,,---,0.00,VWS V14.01,2013-01-17 13:29:00,
2013-01-17 08:30:00,27.1,26.1,29.88,SW,234,0.0,0.0,96,0.00,,---,0.00,VWS V14.01,2013-01-17 13:30:00,
2013-01-17 08:34:00,27.3,26.3,29.88,SW,234,0.0,0.0,96,0.00,,---,0.00,VWS V14.01,2013-01-17 13:34:00,
2013-01-17 08:35:00,27.3,26.3,29.88,SW,234,0.0,0.0,96,0.00,,---,0.00,VWS V14.01,2013-01-17 13:35:00,
2013-01-17 08:39:00,27.5,26.5,29.88,SW,234,0.0,0.0,96,0.00,,---,0.00,VWS V14.01,2013-01-17 13:39:00,
2013-01-17 08:40:00,27.4,26.4,29.88,SW,234,0.0,1.0,96,0.00,,---,0.00,VWS V14.01,2013-01-17 13:40:00,
2013-01-17 08:44:00,27.8,26.8,29.89,SW,234,0.0,0.0,96,0.00,,---,0.00,VWS V14.01,2013-01-17 13:44:00,
2013-01-17 08:45:00,27.7,26.7,29.88,SW,234,0.0,0.0,96,0.00,,---,0.00,VWS V14.01,2013-01-17 13:45:00,
2013-01-17 08:49:00,28.1,27.1,29.89,SW,234,0.0,0.0,96,0.00,,---,0.00,VWS V14.01,2013-01-17 13:49:00,
2013-01-17 08:50:00,28.0,27.0,29.89,SW,234,0.0,0.0,96,0.00,,---,0.00,VWS V14.01,2013-01-17 13:50:00,
2013-01-17 08:54:00,28.5,27.5,29.88,SW,234,0.0,2.0,96,0.00,,---,0.00,VWS V14.01,2013-01-17 13:54:00,
2013-01-17 08:55:00,28.4,27.4,29.89,SW,234,2.0,2.0,96,0.00,,---,0.00,VWS V14.01,2013-01-17 13:55:00,
2013-01-17 09:00:00,28.9,27.9,29.89,SSW,198,0.0,1.0,96,0.00,,---,0.00,VWS V14.01,2013-01-17 14:00:00,
2013-01-17 09:05:00,29.5,28.5,29.89,SSW,198,1.0,1.0,96,0.00,,---,0.00,VWS V14.01,2013-01-17 14:05:00,
2013-01-17 09:10:00,29.9,29.1,29.89,SW,216,0.0,3.0,97,0.00,,---,0.00,VWS V14.01,2013-01-17 14:10:00,
2013-01-17 09:15:00,30.4,29.6,29.89,SW,216,1.0,1.0,97,0.00,,---,0.00,VWS V14.01,2013-01-17 14:15:00,
2013-01-17 09:20:00,30.7,30.0,29.90,SW,215,2.0,4.0,97,0.00,,---,0.00,VWS V14.01,2013-01-17 14:20:00,
2013-01-17 09:25:00,31.0,30.2,29.90,SSW,204,1.0,2.0,97,0.00,,---,0.00,VWS V14.01,2013-01-17 14:25:00,
2013-01-17 09:30:00,31.3,30.5,29.90,SSW,204,0.0,0.0,97,0.00,,---,0.00,VWS V14.01,2013-01-17 14:30:00,
2013-01-17 09:35:00,31.6,30.9,29.90,SW,217,0.0,6.0,97,0.00,,---,0.00,VWS V14.01,2013-01-17 14:35:00,
2013-01-17 09:40:00,31.9,31.1,29.89,SW,227,1.0,4.0,97,0.00,,---,0.00,VWS V14.01,2013-01-17 14:40:00,
2013-01-17 09:45:00,32.3,31.5,29.90,SW,235,0.0,1.0,97,0.00,,---,0.00,VWS V14.01,2013-01-17 14:45:00,
2013-01-17 09:50:00,32.5,31.7,29.90,SSW,209,1.0,4.0,97,0.00,,---,0.00,VWS V14.01,2013-01-17 14:50:00,
2013-01-17 09:55:00,32.6,31.8,29.90,SW,224,0.0,4.0,97,0.00,,---,0.00,VWS V14.01,2013-01-17 14:55:00,
2013-01-17 10:00:00,32.8,32.0,29.89,SSW,209,1.0,3.0,97,0.00,,---,0.00,VWS V14.01,2013-01-17 15:00:00,
2013-01-17 10:05:00,33.1,32.3,29.89,SW,226,1.0,4.0,97,0.00,,---,0.00,VWS V14.01,2013-01-17 15:05:00,
2013-01-17 10:10:00,33.8,33.0,29.89,SSW,210,3.0,5.0,97,0.00,,---,0.00,VWS V14.01,2013-01-17 15:10:00,
2013-01-17 10:15:00,34.1,33.3,29.90,SSW,213,2.0,6.0,97,0.00,,---,0.00,VWS V14.01,2013-01-17 15:15:00,
2013-01-17 10:20:00,34.4,33.6,29.90,SW,229,0.0,2.0,97,0.00,,---,0.00,VWS V14.01,2013-01-17 15:20:00,
2013-01-17 10:25:00,34.4,33.6,29.90,SW,229,0.0,11.0,97,0.00,,---,0.00,VWS V14.01,2013-01-17 15:25:00,
2013-01-17 10:30:00,34.6,33.8,29.90,SW,222,0.0,4.0,97,0.00,,---,0.00,VWS V14.01,2013-01-17 15:30:00,
2013-01-17 10:35:00,34.8,34.0,29.90,SW,236,3.0,4.0,97,0.00,,---,0.00,VWS V14.01,2013-01-17 15:35:00,
2013-01-17 10:36:00,35.0,34.2,29.89,SW,235,0.0,10.0,97,0.00,,---,0.00,VWS V14.01,2013-01-17 15:36:00,
2013-01-17 10:40:00,35.1,34.3,29.89,West,271,1.0,10.0,97,0.00,,---,0.00,VWS V14.01,2013-01-17 15:40:00,
2013-01-17 10:41:00,35.2,34.4,29.90,WSW,242,2.0,6.0,97,0.00,,---,0.00,VWS V14.01,2013-01-17 15:41:00,
2013-01-17 10:45:00,35.3,34.5,29.90,SW,214,1.0,6.0,97,0.00,,---,0.00,VWS V14.01,2013-01-17 15:45:00,
2013-01-17 10:46:00,35.4,34.6,29.90,SW,217,5.0,6.0,97,0.00,,---,0.00,VWS V14.01,2013-01-17 15:46:00,
2013-01-17 10:50:00,35.4,34.6,29.90,SW,225,3.0,6.0,97,0.00,,---,0.00,VWS V14.01,2013-01-17 15:50:00,
2013-01-17 10:51:00,35.5,34.7,29.90,SW,221,1.0,6.0,97,0.01,,---,0.01,VWS V14.01,2013-01-17 15:51:00,
2013-01-17 10:55:00,35.6,34.6,29.90,SW,221,4.0,6.0,96,0.01,,---,0.01,VWS V14.01,2013-01-17 15:55:00,
2013-01-17 10:56:00,35.6,34.6,29.89,WNW,294,0.0,5.0,96,0.01,,---,0.01,VWS V14.01,2013-01-17 15:56:00,
2013-01-17 11:00:00,36.0,35.0,29.89,NNW,333,0.0,5.0,96,0.01,,---,0.01,VWS V14.01,2013-01-17 16:00:00,
2013-01-17 11:01:00,36.3,34.7,29.89,South,169,0.0,3.0,94,0.01,,---,0.01,VWS V14.01,2013-01-17 16:01:00,
2013-01-17 11:05:00,36.5,34.7,29.90,SSW,202,2.0,5.0,93,0.01,,---,0.01,VWS V14.01,2013-01-17 16:05:00,
2013-01-17 11:06:00,36.8,34.4,29.90,WSW,242,4.0,5.0,91,0.01,,---,0.01,VWS V14.01,2013-01-17 16:06:00,
2013-01-17 11:10:00,37.0,34.6,29.89,SW,227,3.0,5.0,91,0.01,,---,0.01,VWS V14.01,2013-01-17 16:10:00,
2013-01-17 11:11:00,37.2,34.3,29.89,SW,230,6.0,9.0,89,0.01,,---,0.01,VWS V14.01,2013-01-17 16:11:00,
2013-01-17 11:15:00,37.4,34.2,29.90,SSW,211,4.0,9.0,88,0.01,,---,0.01,VWS V14.01,2013-01-17 16:15:00,
2013-01-17 11:16:00,37.5,34.3,29.90,SW,215,0.0,7.0,88,0.01,,---,0.01,VWS V14.01,2013-01-17 16:16:00,
2013-01-17 11:20:00,37.6,34.1,29.90,WSW,255,6.0,7.0,87,0.01,,---,0.01,VWS V14.01,2013-01-17 16:20:00,
2013-01-17 11:21:00,37.7,33.6,29.90,SW,234,3.0,14.0,85,0.01,,---,0.01,VWS V14.01,2013-01-17 16:21:00,
2013-01-17 11:25:00,37.8,34.0,29.91,WSW,257,4.0,14.0,86,0.01,,---,0.01,VWS V14.01,2013-01-17 16:25:00,
2013-01-17 11:26:00,38.0,34.5,29.91,WSW,248,1.0,7.0,87,0.02,,---,0.02,VWS V14.01,2013-01-17 16:26:00,
2013-01-17 11:30:00,38.3,34.5,29.91,South,181,0.0,7.0,86,0.02,,---,0.02,VWS V14.01,2013-01-17 16:30:00,
2013-01-17 11:31:00,38.4,34.3,29.90,WNW,284,3.0,10.0,85,0.03,,---,0.03,VWS V14.01,2013-01-17 16:31:00,
2013-01-17 11:35:00,38.6,34.2,29.90,SW,233,3.0,11.0,84,0.03,,---,0.03,VWS V14.01,2013-01-17 16:35:00,
2013-01-17 11:36:00,38.9,34.2,29.90,WSW,246,1.0,10.0,83,0.03,,---,0.03,VWS V14.01,2013-01-17 16:36:00,
2013-01-17 11:40:00,39.1,35.0,29.90,SSW,207,0.0,10.0,85,0.03,,---,0.03,VWS V14.01,2013-01-17 16:40:00,
2013-01-17 11:41:00,39.2,34.2,29.90,SW,217,4.0,9.0,82,0.03,,---,0.03,VWS V14.01,2013-01-17 16:41:00,
2013-01-17 11:45:00,39.3,34.3,29.90,WSW,239,4.0,9.0,82,0.03,,---,0.03,VWS V14.01,2013-01-17 16:45:00,
2013-01-17 11:46:00,39.3,34.0,29.90,SSW,208,4.0,12.0,81,0.04,,---,0.04,VWS V14.01,2013-01-17 16:46:00,
2013-01-17 11:50:00,39.2,33.9,29.90,South,190,4.0,12.0,81,0.04,,---,0.04,VWS V14.01,2013-01-17 16:50:00,
2013-01-17 11:51:00,39.1,33.8,29.90,West,259,5.0,11.0,81,0.04,,---,0.04,VWS V14.01,2013-01-17 16:51:00,
2013-01-17 11:55:00,39.2,33.9,29.90,SW,232,1.0,13.0,81,0.04,,---,0.04,VWS V14.01,2013-01-17 16:55:00,
2013-01-17 11:56:00,39.4,34.1,29.90,SW,229,3.0,9.0,81,0.04,,---,0.05,VWS V14.01,2013-01-17 16:56:00,
2013-01-17 12:00:00,39.4,33.4,29.90,SSW,209,4.0,15.0,79,0.04,,---,0.05,VWS V14.01,2013-01-17 17:00:00,
2013-01-17 12:02:00,39.5,33.5,29.90,West,265,0.0,9.0,79,0.04,,---,0.05,VWS V14.01,2013-01-17 17:02:00,
2013-01-17 12:05:00,39.5,33.8,29.89,WSW,256,3.0,13.0,80,0.04,,---,0.05,VWS V14.01,2013-01-17 17:05:00,
2013-01-17 12:07:00,39.4,33.4,29.89,WNW,284,5.0,13.0,79,0.05,,---,0.06,VWS V14.01,2013-01-17 17:07:00,
2013-01-17 12:10:00,39.4,33.1,29.89,WSW,237,2.0,13.0,78,0.05,,---,0.06,VWS V14.01,2013-01-17 17:10:00,
2013-01-17 12:12:00,39.2,33.2,29.89,SW,229,1.0,11.0,79,0.05,,---,0.06,VWS V14.01,2013-01-17 17:12:00,
2013-01-17 12:15:00,39.2,32.9,29.89,WNW,294,7.0,11.0,78,0.05,,---,0.06,VWS V14.01,2013-01-17 17:15:00,
2013-01-17 12:17:00,39.1,32.8,29.89,SW,225,3.0,13.0,78,0.06,,---,0.07,VWS V14.01,2013-01-17 17:17:00,
2013-01-17 12:20:00,39.1,33.2,29.89,WSW,242,0.0,13.0,79,0.06,,---,0.07,VWS V14.01,2013-01-17 17:20:00,
2013-01-17 12:22:00,39.2,32.9,29.89,WSW,248,9.0,13.0,78,0.07,,---,0.08,VWS V14.01,2013-01-17 17:22:00,
2013-01-17 12:25:00,39.2,32.9,29.89,WNW,294,6.0,13.0,78,0.07,,---,0.08,VWS V14.01,2013-01-17 17:25:00,
2013-01-17 12:27:00,39.4,33.8,29.89,SW,222,4.0,9.0,80,0.07,,---,0.08,VWS V14.01,2013-01-17 17:27:00,
2013-01-17 12:30:00,39.5,33.5,29.89,SW,223,1.0,9.0,79,0.07,,---,0.08,VWS V14.01,2013-01-17 17:30:00,
2013-01-17 12:32:00,39.8,33.5,29.89,West,279,2.0,6.0,78,0.07,,---,0.09,VWS V14.01,2013-01-17 17:32:00,
2013-01-17 12:35:00,39.9,33.3,29.89,West,277,5.0,6.0,77,0.07,,---,0.09,VWS V14.01,2013-01-17 17:35:00,
2013-01-17 12:37:00,40.1,33.5,29.90,WSW,246,5.0,14.0,77,0.06,,---,0.09,VWS V14.01,2013-01-17 17:37:00,
2013-01-17 12:40:00,40.2,33.2,29.90,NW,314,8.0,14.0,76,0.06,,---,0.09,VWS V14.01,2013-01-17 17:40:00,
2013-01-17 12:42:00,40.5,33.2,29.89,West,266,1.0,10.0,75,0.07,,---,0.10,VWS V14.01,2013-01-17 17:42:00,
2013-01-17 12:45:00,40.5,32.9,29.89,West,259,6.0,10.0,74,0.07,,---,0.10,VWS V14.01,2013-01-17 17:45:00,
2013-01-17 12:47:00,40.5,33.5,29.90,WNW,297,3.0,6.0,76,0.07,,---,0.10,VWS V14.01,2013-01-17 17:47:00,
2013-01-17 12:50:00,40.5,33.2,29.90,West,280,10.0,10.0,75,0.07,,---,0.10,VWS V14.01,2013-01-17 17:50:00,
2013-01-17 12:52:00,40.5,33.2,29.90,SW,234,2.0,12.0,75,0.07,,---,0.11,VWS V14.01,2013-01-17 17:52:00,
2013-01-17 12:55:00,40.5,32.9,29.90,SW,217,4.0,12.0,74,0.07,,---,0.11,VWS V14.01,2013-01-17 17:55:00,
2013-01-17 12:57:00,40.5,32.5,29.90,WSW,249,3.0,11.0,73,0.08,,---,0.12,VWS V14.01,2013-01-17 17:57:00,
2013-01-17 13:00:00,40.6,32.3,29.90,WSW,241,11.0,13.0,72,0.08,,---,0.12,VWS V14.01,2013-01-17 18:00:00,
2013-01-17 13:02:00,40.5,31.9,29.90,West,265,3.0,17.0,71,0.07,,---,0.12,VWS V14.01,2013-01-17 18:02:00,
2013-01-17 13:05:00,40.5,32.2,29.90,WSW,244,0.0,17.0,72,0.07,,---,0.12,VWS V14.01,2013-01-17 18:05:00,
2013-01-17 13:07:00,40.3,32.0,29.90,NW,326,11.0,18.0,72,0.08,,---,0.13,VWS V14.01,2013-01-17 18:07:00,
2013-01-17 13:10:00,40.3,31.7,29.90,SSW,209,6.0,18.0,71,0.08,,---,0.13,VWS V14.01,2013-01-17 18:10:00,
2013-01-17 13:12:00,40.1,31.8,29.90,NW,306,4.0,10.0,72,0.08,,---,0.14,VWS V14.01,2013-01-17 18:12:00,
2013-01-17 13:15:00,40.1,31.8,29.90,West,269,10.0,11.0,72,0.08,,---,0.14,VWS V14.01,2013-01-17 18:15:00,
2013-01-17 13:18:00,40.1,31.5,29.90,West,271,8.0,14.0,71,0.08,,---,0.14,VWS V14.01,2013-01-17 18:18:00,
2013-01-17 13:20:00,40.1,31.5,29.90,WNW,300,2.0,14.0,71,0.08,,---,0.14,VWS V14.01,2013-01-17 18:20:00,
2013-01-17 13:23:00,40.1,31.5,29.90,West,278,3.0,7.0,71,0.07,,---,0.14,VWS V14.01,2013-01-17 18:23:00,
2013-01-17 13:25:00,40.1,31.5,29.90,WNW,296,1.0,7.0,71,0.07,,---,0.14,VWS V14.01,2013-01-17 18:25:00,
2013-01-17 13:28:00,40.3,31.7,29.90,West,261,13.0,13.0,71,0.07,,---,0.15,VWS V14.01,2013-01-17 18:28:00,
2013-01-17 13:30:00,40.2,31.6,29.90,WSW,238,1.0,13.0,71,0.07,,---,0.15,VWS V14.01,2013-01-17 18:30:00,
2013-01-17 13:33:00,40.6,32.3,29.91,West,263,2.0,10.0,72,0.07,,---,0.15,VWS V14.01,2013-01-17 18:33:00,
2013-01-17 13:35:00,40.6,32.3,29.91,West,261,1.0,10.0,72,0.07,,---,0.15,VWS V14.01,2013-01-17 18:35:00,
2013-01-17 13:38:00,40.6,31.2,29.91,WSW,252,7.0,18.0,69,0.07,,---,0.16,VWS V14.01,2013-01-17 18:38:00,
2013-01-17 13:40:00,40.7,31.3,29.91,SW,215,5.0,18.0,69,0.07,,---,0.16,VWS V14.01,2013-01-17 18:40:00,
2013-01-17 13:43:00,40.5,31.1,29.90,SSW,198,1.0,14.0,69,0.07,,---,0.16,VWS V14.01,2013-01-17 18:43:00,
2013-01-17 13:45:00,40.5,31.1,29.90,SSW,200,0.0,14.0,69,0.07,,---,0.16,VWS V14.01,2013-01-17 18:45:00,
2013-01-17 13:48:00,40.4,31.4,29.91,WSW,247,3.0,12.0,70,0.07,,---,0.17,VWS V14.01,2013-01-17 18:48:00,
2013-01-17 13:50:00,40.4,31.4,29.91,WSW,247,3.0,12.0,70,0.07,,---,0.17,VWS V14.01,2013-01-17 18:50:00,
2013-01-17 13:53:00,40.4,31.4,29.92,NW,313,2.0,10.0,70,0.07,,---,0.17,VWS V14.01,2013-01-17 18:53:00,
2013-01-17 13:55:00,40.4,31.4,29.92,NW,313,2.0,10.0,70,0.07,,---,0.17,VWS V14.01,2013-01-17 18:55:00,
2013-01-17 13:58:00,40.2,30.9,29.92,WNW,288,0.0,9.0,69,0.07,,---,0.18,VWS V14.01,2013-01-17 18:58:00,
2013-01-17 14:00:00,40.2,30.9,29.92,WNW,288,0.0,9.0,69,0.07,,---,0.18,VWS V14.01,2013-01-17 19:00:00,
2013-01-17 14:03:00,40.3,31.3,29.92,WNW,283,7.0,7.0,70,0.06,,---,0.18,VWS V14.01,2013-01-17 19:03:00,
2013-01-17 14:05:00,40.3,31.3,29.92,WNW,283,7.0,7.0,70,0.06,,---,0.18,VWS V14.01,2013-01-17 19:05:00,
2013-01-17 14:08:00,40.3,31.3,29.92,South,186,0.0,7.0,70,0.06,,---,0.18,VWS V14.01,2013-01-17 19:08:00,
2013-01-17 14:10:00,40.3,31.3,29.92,South,186,0.0,7.0,70,0.06,,---,0.18,VWS V14.01,2013-01-17 19:10:00,
2013-01-17 14:13:00,40.2,30.9,29.92,WSW,258,2.0,9.0,69,0.05,,---,0.18,VWS V14.01,2013-01-17 19:13:00,
2013-01-17 14:15:00,40.2,30.9,29.92,WSW,258,2.0,9.0,69,0.05,,---,0.18,VWS V14.01,2013-01-17 19:15:00,
2013-01-17 14:18:00,40.2,30.9,29.92,WNW,284,0.0,5.0,69,0.05,,---,0.19,VWS V14.01,2013-01-17 19:18:00,
2013-01-17 14:20:00,40.2,30.9,29.92,WNW,284,0.0,5.0,69,0.05,,---,0.19,VWS V14.01,2013-01-17 19:20:00,
2013-01-17 14:23:00,40.2,30.1,29.92,WNW,300,2.0,6.0,67,0.06,,---,0.20,VWS V14.01,2013-01-17 19:23:00,
2013-01-17 14:25:00,40.2,30.1,29.92,WNW,300,2.0,6.0,67,0.06,,---,0.20,VWS V14.01,2013-01-17 19:25:00,
2013-01-17 14:28:00,40.3,30.2,29.92,West,274,2.0,12.0,67,0.06,,---,0.20,VWS V14.01,2013-01-17 19:28:00,
2013-01-17 14:30:00,40.3,30.2,29.92,West,274,2.0,12.0,67,0.06,,---,0.20,VWS V14.01,2013-01-17 19:30:00,
2013-01-17 14:33:00,40.4,30.7,29.93,WSW,250,6.0,6.0,68,0.05,,---,0.20,VWS V14.01,2013-01-17 19:33:00,
2013-01-17 14:35:00,40.4,30.7,29.93,WSW,250,6.0,6.0,68,0.05,,---,0.20,VWS V14.01,2013-01-17 19:35:00,
2013-01-17 14:38:00,40.4,30.0,29.93,WSW,243,11.0,11.0,66,0.05,,---,0.20,VWS V14.01,2013-01-17 19:38:00,
2013-01-17 14:40:00,40.4,30.0,29.93,WSW,243,11.0,11.0,66,0.05,,---,0.20,VWS V14.01,2013-01-17 19:40:00,
2013-01-17 14:43:00,40.4,29.6,29.94,WSW,252,3.0,17.0,65,0.05,,---,0.21,VWS V14.01,2013-01-17 19:43:00,
2013-01-17 14:45:00,40.4,29.6,29.94,WSW,252,3.0,17.0,65,0.05,,---,0.21,VWS V14.01,2013-01-17 19:45:00,
2013-01-17 14:48:00,40.5,30.0,29.94,SW,223,1.0,2.0,66,0.04,,---,0.21,VWS V14.01,2013-01-17 19:48:00,
2013-01-17 14:50:00,40.5,30.0,29.94,SW,223,2.0,8.0,66,0.05,,---,0.21,VWS V14.01,2013-01-17 19:50:00,
2013-01-17 14:53:00,40.5,29.3,29.94,West,277,6.0,11.0,64,0.05,,---,0.22,VWS V14.01,2013-01-17 19:53:00,
2013-01-17 14:55:00,40.5,29.3,29.94,West,272,0.0,10.0,64,0.04,,---,0.21,VWS V14.01,2013-01-17 19:55:00,
2013-01-17 14:58:00,40.4,29.2,29.94,WSW,252,0.0,6.0,64,0.04,,---,0.22,VWS V14.01,2013-01-17 19:58:00,
2013-01-17 15:00:00,40.4,29.6,29.94,WSW,254,2.0,11.0,65,0.05,,---,0.22,VWS V14.01,2013-01-17 20:00:00,
2013-01-17 15:03:00,40.4,29.6,29.94,West,266,9.0,9.0,65,0.04,,---,0.22,VWS V14.01,2013-01-17 20:03:00,
2013-01-17 15:05:00,40.4,29.6,29.94,NW,324,5.0,6.0,65,0.04,,---,0.22,VWS V14.01,2013-01-17 20:05:00,
2013-01-17 15:09:00,40.3,29.1,29.94,WNW,286,2.0,9.0,64,0.05,,---,0.23,VWS V14.01,2013-01-17 20:09:00,
2013-01-17 15:10:00,40.3,29.1,29.94,West,259,9.0,10.0,64,0.04,,---,0.22,VWS V14.01,2013-01-17 20:10:00,
2013-01-17 15:14:00,40.2,29.8,29.95,WNW,294,4.0,6.0,66,0.05,,---,0.23,VWS V14.01,2013-01-17 20:14:00,
2013-01-17 15:15:00,40.2,29.8,29.94,WNW,284,1.0,9.0,66,0.05,,---,0.23,VWS V14.01,2013-01-17 20:15:00,
2013-01-17 15:19:00,40.1,29.3,29.95,NW,306,5.0,9.0,65,0.04,,---,0.23,VWS V14.01,2013-01-17 20:19:00,
2013-01-17 15:20:00,40.2,29.8,29.95,West,267,9.0,9.0,66,0.05,,---,0.23,VWS V14.01,2013-01-17 20:20:00,
2013-01-17 15:24:00,40.0,29.2,29.95,North,349,5.0,10.0,65,0.04,,---,0.24,VWS V14.01,2013-01-17 20:24:00,
2013-01-17 15:25:00,40.1,29.3,29.95,WNW,294,10.0,13.0,65,0.05,,---,0.24,VWS V14.01,2013-01-17 20:25:00,
2013-01-17 15:29:00,39.6,29.6,29.95,North,360,5.0,7.0,67,0.04,,---,0.24,VWS V14.01,2013-01-17 20:29:00,
2013-01-17 15:30:00,39.7,29.7,29.95,NNW,327,1.0,14.0,67,0.04,,---,0.24,VWS V14.01,2013-01-17 20:30:00,
2013-01-17 15:34:00,39.0,29.7,29.96,SSW,205,0.0,2.0,69,0.04,,---,0.24,VWS V14.01,2013-01-17 20:34:00,
2013-01-17 15:35:00,39.2,29.9,29.96,SSW,205,0.0,7.0,69,0.04,,---,0.24,VWS V14.01,2013-01-17 20:35:00,
2013-01-17 15:39:00,38.6,30.0,29.97,West,259,1.0,4.0,71,0.04,,---,0.24,VWS V14.01,2013-01-17 20:39:00,
2013-01-17 15:40:00,38.7,29.8,29.96,WNW,297,2.0,5.0,70,0.04,,---,0.24,VWS V14.01,2013-01-17 20:40:00,
2013-01-17 15:44:00,38.1,29.5,29.97,North,5,0.0,3.0,71,0.04,,---,0.25,VWS V14.01,2013-01-17 20:44:00,
2013-01-17 15:45:00,38.2,29.6,29.97,North,360,1.0,4.0,71,0.05,,---,0.25,VWS V14.01,2013-01-17 20:45:00,
2013-01-17 15:49:00,37.8,29.6,29.97,NW,306,0.0,2.0,72,0.04,,---,0.25,VWS V14.01,2013-01-17 20:49:00,
2013-01-17 15:50:00,37.8,29.2,29.97,NNW,348,0.0,3.0,71,0.04,,---,0.25,VWS V14.01,2013-01-17 20:50:00,
2013-01-17 15:54:00,37.5,29.3,29.97,South,178,0.0,4.0,72,0.04,,---,0.25,VWS V14.01,2013-01-17 20:54:00,
2013-01-17 15:55:00,37.5,29.3,29.97,West,260,0.0,4.0,72,0.04,,---,0.25,VWS V14.01,2013-01-17 20:55:00,
2013-01-17 15:59:00,37.3,28.8,29.97,NW,325,2.0,3.0,71,0.03,,---,0.25,VWS V14.01,2013-01-17 20:59:00,
2013-01-17 16:00:00,37.3,28.8,29.97,WNW,300,2.0,6.0,71,0.04,,---,0.25,VWS V14.01,2013-01-17 21:00:00,
2013-01-17 16:04:00,37.2,29.0,29.97,WNW,290,0.0,3.0,72,0.03,,---,0.25,VWS V14.01,2013-01-17 21:04:00,
2013-01-17 16:05:00,37.2,29.0,29.97,NNW,346,0.0,5.0,72,0.03,,---,0.25,VWS V14.01,2013-01-17 21:05:00,
2013-01-17 16:09:00,37.0,28.5,29.97,NW,315,4.0,5.0,71,0.03,,---,0.25,VWS V14.01,2013-01-17 21:09:00,
2013-01-17 16:10:00,37.1,29.3,29.97,WNW,283,0.0,5.0,73,0.03,,---,0.25,VWS V14.01,2013-01-17 21:10:00,
2013-01-17 16:14:00,36.9,28.7,29.96,WNW,295,5.0,5.0,72,0.03,,---,0.26,VWS V14.01,2013-01-17 21:14:00,
2013-01-17 16:15:00,36.9,28.4,29.96,NW,308,0.0,5.0,71,0.04,,---,0.26,VWS V14.01,2013-01-17 21:15:00,
2013-01-17 16:19:00,36.7,28.2,29.97,WNW,294,0.0,1.0,71,0.03,,---,0.26,VWS V14.01,2013-01-17 21:19:00,
2013-01-17 16:20:00,36.8,28.3,29.97,WNW,294,0.0,6.0,71,0.03,,---,0.26,VWS V14.01,2013-01-17 21:20:00,
2013-01-17 16:25:00,36.6,28.1,29.97,WNW,292,0.0,3.0,71,0.02,,---,0.26,VWS V14.01,2013-01-17 21:25:00,
2013-01-17 16:30:00,36.5,28.4,29.98,NNW,347,0.0,4.0,72,0.02,,---,0.26,VWS V14.01,2013-01-17 21:30:00,
2013-01-17 16:35:00,36.4,28.2,29.98,NNW,344,0.0,2.0,72,0.02,,---,0.26,VWS V14.01,2013-01-17 21:35:00,
2013-01-17 16:40:00,36.2,28.4,29.98,NNW,344,0.0,1.0,73,0.02,,---,0.26,VWS V14.01,2013-01-17 21:40:00,
2013-01-17 16:45:00,36.1,28.3,29.98,North,350,0.0,1.0,73,0.01,,---,0.26,VWS V14.01,2013-01-17 21:45:00,
2013-01-17 16:50:00,36.0,28.9,29.98,North,350,0.0,0.0,75,0.01,,---,0.26,VWS V14.01,2013-01-17 21:50:00,
2013-01-17 16:55:00,35.7,28.6,29.99,North,350,0.0,1.0,75,0.01,,---,0.26,VWS V14.01,2013-01-17 21:55:00,
2013-01-17 17:00:00,35.5,28.7,29.99,North,350,0.0,0.0,76,0.01,,---,0.26,VWS V14.01,2013-01-17 22:00:00,
2013-01-17 17:05:00,35.2,27.8,29.99,NW,320,0.0,2.0,74,0.01,,---,0.26,VWS V14.01,2013-01-17 22:05:00,
2013-01-17 17:10:00,35.1,27.0,29.99,WNW,288,1.0,1.0,72,0.01,,---,0.26,VWS V14.01,2013-01-17 22:10:00,
2013-01-17 17:15:00,35.1,26.7,29.99,NNW,336,0.0,2.0,71,0.00,,---,0.26,VWS V14.01,2013-01-17 22:15:00,
2013-01-17 17:20:00,35.1,26.7,30.00,NNW,336,0.0,2.0,71,0.00,,---,0.26,VWS V14.01,2013-01-17 22:20:00,
2013-01-17 17:25:00,35.1,26.3,30.00,North,355,0.0,5.0,70,0.00,,---,0.26,VWS V14.01,2013-01-17 22:25:00,
2013-01-17 17:30:00,35.1,26.3,30.01,NNW,346,0.0,2.0,70,0.00,,---,0.26,VWS V14.01,2013-01-17 22:30:00,
2013-01-17 17:35:00,35.1,26.0,30.01,NNW,348,0.0,3.0,69,0.00,,---,0.26,VWS V14.01,2013-01-17 22:35:00,
2013-01-17 17:40:00,35.0,25.2,30.01,NNE,16,0.0,4.0,67,0.00,,---,0.26,VWS V14.01,2013-01-17 22:40:00,
2013-01-17 17:45:00,34.9,24.7,30.01,North,355,2.0,4.0,66,0.00,,---,0.26,VWS V14.01,2013-01-17 22:45:00,
2013-01-17 17:46:00,34.9,25.1,30.01,North,355,0.0,2.0,67,0.00,,---,0.26,VWS V14.01,2013-01-17 22:46:00,
2013-01-17 17:50:00,34.8,24.6,30.01,NE,38,0.0,3.0,66,0.00,,---,0.26,VWS V14.01,2013-01-17 22:50:00,
2013-01-17 17:51:00,34.8,25.3,30.01,NNW,338,1.0,2.0,68,0.00,,---,0.26,VWS V14.01,2013-01-17 22:51:00,
2013-01-17 17:55:00,34.7,24.9,30.01,NNW,338,0.0,2.0,67,0.00,,---,0.26,VWS V14.01,2013-01-17 22:55:00,
2013-01-17 17:56:00,34.6,24.8,30.01,North,360,1.0,3.0,67,0.00,,---,0.26,VWS V14.01,2013-01-17 22:56:00,
2013-01-17 18:00:00,34.4,24.6,30.01,ENE,76,0.0,5.0,67,0.00,,---,0.26,VWS V14.01,2013-01-17 23:00:00,
2013-01-17 18:01:00,34.4,24.6,30.00,NW,311,5.0,9.0,67,0.00,,---,0.26,VWS V14.01,2013-01-17 23:01:00,
2013-01-17 18:05:00,34.4,23.9,30.00,North,360,0.0,9.0,65,0.00,,---,0.26,VWS V14.01,2013-01-17 23:05:00,
2013-01-17 18:06:00,34.4,23.9,30.01,NW,326,0.0,5.0,65,0.00,,---,0.26,VWS V14.01,2013-01-17 23:06:00,
2013-01-17 18:10:00,34.4,24.2,30.01,NW,326,0.0,5.0,66,0.00,,---,0.26,VWS V14.01,2013-01-17 23:10:00,
2013-01-17 18:11:00,34.3,24.5,30.01,WSW,250,3.0,5.0,67,0.00,,---,0.26,VWS V14.01,2013-01-17 23:11:00,
2013-01-17 18:15:00,34.2,23.7,30.01,NNE,15,2.0,5.0,65,0.00,,---,0.26,VWS V14.01,2013-01-17 23:15:00,
2013-01-17 18:16:00,34.1,23.6,30.02,NW,319,0.0,3.0,65,0.00,,---,0.26,VWS V14.01,2013-01-17 23:16:00,
2013-01-17 18:20:00,34.1,23.6,30.02,NNW,343,3.0,4.0,65,0.00,,---,0.26,VWS V14.01,2013-01-17 23:20:00,
2013-01-17 18:21:00,33.9,23.4,30.02,WNW,290,3.0,5.0,65,0.00,,---,0.26,VWS V14.01,2013-01-17 23:21:00,
2013-01-17 18:25:00,33.9,23.4,30.02,West,276,0.0,5.0,65,0.00,,---,0.26,VWS V14.01,2013-01-17 23:25:00,
2013-01-17 18:26:00,33.8,23.3,30.03,West,276,0.0,1.0,65,0.00,,---,0.26,VWS V14.01,2013-01-17 23:26:00,
2013-01-17 18:30:00,33.8,23.3,30.03,North,350,0.0,4.0,65,0.00,,---,0.26,VWS V14.01,2013-01-17 23:30:00,
2013-01-17 18:31:00,33.8,23.7,30.03,West,265,3.0,5.0,66,0.00,,---,0.26,VWS V14.01,2013-01-17 23:31:00,
2013-01-17 18:35:00,33.7,23.2,30.03,West,265,2.0,5.0,65,0.00,,---,0.26,VWS V14.01,2013-01-17 23:35:00,
2013-01-17 18:36:00,33.7,23.2,30.03,West,277,1.0,5.0,65,0.00,,---,0.26,VWS V14.01,2013-01-17 23:36:00,
2013-01-17 18:40:00,33.7,23.6,30.04,West,277,2.0,5.0,66,0.00,,---,0.26,VWS V14.01,2013-01-17 23:40:00,
2013-01-17 18:41:00,33.6,23.1,30.04,West,277,0.0,2.0,65,0.00,,---,0.26,VWS V14.01,2013-01-17 23:41:00,
2013-01-17 18:45:00,33.6,23.1,30.04,West,277,0.0,2.0,65,0.00,,---,0.26,VWS V14.01,2013-01-17 23:45:00,
2013-01-17 18:46:00,33.6,23.5,30.05,WSW,243,4.0,5.0,66,0.00,,---,0.26,VWS V14.01,2013-01-17 23:46:00,
2013-01-17 18:50:00,33.5,23.0,30.05,WNW,296,2.0,5.0,65,0.00,,---,0.26,VWS V14.01,2013-01-17 23:50:00,
2013-01-17 18:51:00,33.5,22.6,30.05,NNW,344,1.0,4.0,64,0.00,,---,0.26,VWS V14.01,2013-01-17 23:51:00,
2013-01-17 18:55:00,33.4,22.9,30.05,North,355,2.0,4.0,65,0.00,,---,0.26,VWS V14.01,2013-01-17 23:55:00,
2013-01-17 18:56:00,33.4,22.2,30.04,NNW,330,1.0,3.0,63,0.00,,---,0.26,VWS V14.01,2013-01-17 23:56:00,
2013-01-17 19:00:00,33.3,22.5,30.04,NNW,330,1.0,3.0,64,0.00,,---,0.26,VWS V14.01,2013-01-18 00:00:00,
2013-01-17 19:01:00,33.2,22.4,30.04,NW,311,0.0,3.0,64,0.00,,---,0.26,VWS V14.01,2013-01-18 00:01:00,
2013-01-17 19:05:00,33.2,22.4,30.03,NW,307,4.0,4.0,64,0.00,,---,0.26,VWS V14.01,2013-01-18 00:05:00,
2013-01-17 19:06:00,33.1,22.6,30.02,NW,323,0.0,4.0,65,0.00,,---,0.26,VWS V14.01,2013-01-18 00:06:00,
2013-01-17 19:10:00,33.1,22.3,30.02,NW,323,0.0,4.0,64,0.00,,---,0.26,VWS V14.01,2013-01-18 00:10:00,
2013-01-17 19:12:00,32.9,22.1,30.02,North,355,1.0,4.0,64,0.00,,---,0.26,VWS V14.01,2013-01-18 00:12:00,
2013-01-17 19:15:00,32.9,22.1,30.02,WNW,288,2.0,4.0,64,0.00,,---,0.26,VWS V14.01,2013-01-18 00:15:00,
2013-01-17 19:17:00,32.8,21.6,30.03,NNW,327,0.0,4.0,63,0.00,,---,0.26,VWS V14.01,2013-01-18 00:17:00,
2013-01-17 19:20:00,32.7,22.2,30.03,NNW,327,1.0,4.0,65,0.00,,---,0.26,VWS V14.01,2013-01-18 00:20:00,
2013-01-17 19:22:00,32.6,22.1,30.04,NW,304,4.0,5.0,65,0.00,,---,0.26,VWS V14.01,2013-01-18 00:22:00,
2013-01-17 19:25:00,32.6,22.5,30.04,West,265,0.0,5.0,66,0.00,,---,0.26,VWS V14.01,2013-01-18 00:25:00,
2013-01-17 19:27:00,32.4,21.6,30.04,SW,229,3.0,3.0,64,0.00,,---,0.26,VWS V14.01,2013-01-18 00:27:00,
2013-01-17 19:30:00,32.4,21.2,30.05,NW,323,1.0,4.0,63,0.00,,---,0.26,VWS V14.01,2013-01-18 00:30:00,
2013-01-17 19:32:00,32.3,21.5,30.05,WNW,287,0.0,4.0,64,0.00,,---,0.26,VWS V14.01,2013-01-18 00:32:00,
2013-01-17 19:35:00,32.3,21.5,30.05,WNW,287,0.0,4.0,64,0.00,,---,0.26,VWS V14.01,2013-01-18 00:35:00,
2013-01-17 19:37:00,32.3,21.5,30.05,NW,319,0.0,4.0,64,0.00,,---,0.26,VWS V14.01,2013-01-18 00:37:00,
2013-01-17 19:40:00,32.2,21.4,30.05,NW,319,0.0,4.0,64,0.00,,---,0.26,VWS V14.01,2013-01-18 00:40:00,
2013-01-17 19:42:00,32.1,21.3,30.04,NW,304,1.0,2.0,64,0.00,,---,0.26,VWS V14.01,2013-01-18 00:42:00,
2013-01-17 19:45:00,32.1,21.3,30.04,NW,304,0.0,2.0,64,0.00,,---,0.26,VWS V14.01,2013-01-18 00:45:00,
2013-01-17 19:47:00,32.1,21.3,30.05,NW,304,0.0,1.0,64,0.00,,---,0.26,VWS V14.01,2013-01-18 00:47:00,
2013-01-17 19:50:00,32.1,21.7,30.05,NE,53,1.0,2.0,65,0.00,,---,0.26,VWS V14.01,2013-01-18 00:50:00,
2013-01-17 19:52:00,32.1,21.7,30.05,NNW,328,0.0,3.0,65,0.00,,---,0.26,VWS V14.01,2013-01-18 00:52:00,
2013-01-17 19:55:00,32.1,21.7,30.05,NNW,330,0.0,3.0,65,0.00,,---,0.26,VWS V14.01,2013-01-18 00:55:00,
2013-01-17 19:57:00,31.9,21.9,30.05,NW,321,0.0,4.0,66,0.00,,---,0.26,VWS V14.01,2013-01-18 00:57:00,
2013-01-17 20:00:00,31.9,21.9,30.05,WNW,291,1.0,4.0,66,0.00,,---,0.26,VWS V14.01,2013-01-18 01:00:00,
2013-01-17 20:02:00,31.8,20.7,30.04,NW,309,3.0,10.0,63,0.00,,---,0.26,VWS V14.01,2013-01-18 01:02:00,
2013-01-17 20:05:00,31.7,20.2,30.04,NW,314,0.0,10.0,62,0.00,,---,0.26,VWS V14.01,2013-01-18 01:05:00,
2013-01-17 20:07:00,31.7,20.6,30.05,NW,322,0.0,4.0,63,0.00,,---,0.26,VWS V14.01,2013-01-18 01:07:00,
2013-01-17 20:10:00,31.7,20.6,30.05,West,259,2.0,5.0,63,0.00,,---,0.26,VWS V14.01,2013-01-18 01:10:00,
2013-01-17 20:12:00,31.5,20.4,30.05,WNW,296,1.0,6.0,63,0.00,,---,0.26,VWS V14.01,2013-01-18 01:12:00,
2013-01-17 20:15:00,31.5,20.4,30.05,NNW,333,2.0,6.0,63,0.00,,---,0.26,VWS V14.01,2013-01-18 01:15:00,
2013-01-17 20:17:00,31.4,20.3,30.05,NNW,336,1.0,3.0,63,0.00,,---,0.26,VWS V14.01,2013-01-18 01:17:00,
2013-01-17 20:20:00,31.4,19.9,30.05,NNW,335,2.0,3.0,62,0.00,,---,0.26,VWS V14.01,2013-01-18 01:20:00,
2013-01-17 20:22:00,31.4,20.3,30.05,NW,304,2.0,5.0,63,0.00,,---,0.26,VWS V14.01,2013-01-18 01:22:00,
2013-01-17 20:25:00,31.3,20.2,30.05,NW,321,2.0,5.0,63,0.00,,---,0.26,VWS V14.01,2013-01-18 01:25:00,
2013-01-17 20:27:00,31.2,19.7,30.04,NNW,340,0.0,7.0,62,0.00,,---,0.26,VWS V14.01,2013-01-18 01:27:00,
2013-01-17 20:30:00,31.2,19.7,30.04,NNW,338,0.0,7.0,62,0.00,,---,0.26,VWS V14.01,2013-01-18 01:30:00,
2013-01-17 20:33:00,31.2,19.7,30.05,NNE,21,2.0,2.0,62,0.00,,---,0.26,VWS V14.01,2013-01-18 01:33:00,
2013-01-17 20:35:00,31.2,19.7,30.05,NNE,26,1.0,2.0,62,0.00,,---,0.26,VWS V14.01,2013-01-18 01:35:00,
2013-01-17 20:38:00,31.1,19.6,30.05,SSE,157,0.0,3.0,62,0.00,,---,0.26,VWS V14.01,2013-01-18 01:38:00,
2013-01-17 20:40:00,31.1,19.6,30.05,SSE,157,0.0,3.0,62,0.00,,---,0.26,VWS V14.01,2013-01-18 01:40:00,
2013-01-17 20:43:00,31.0,19.5,30.03,NNE,19,1.0,3.0,62,0.00,,---,0.26,VWS V14.01,2013-01-18 01:43:00,
2013-01-17 20:45:00,31.0,19.5,30.03,North,355,3.0,4.0,62,0.00,,---,0.26,VWS V14.01,2013-01-18 01:45:00,
2013-01-17 20:48:00,30.9,19.4,30.03,NNW,327,0.0,10.0,62,0.00,,---,0.26,VWS V14.01,2013-01-18 01:48:00,
2013-01-17 20:50:00,30.9,19.4,30.03,NNW,327,0.0,10.0,62,0.00,,---,0.26,VWS V14.01,2013-01-18 01:50:00,
2013-01-17 20:53:00,30.8,19.0,30.04,WNW,287,0.0,6.0,61,0.00,,---,0.26,VWS V14.01,2013-01-18 01:53:00,
2013-01-17 20:55:00,30.8,19.0,30.04,WNW,289,3.0,6.0,61,0.00,,---,0.26,VWS V14.01,2013-01-18 01:55:00,
2013-01-17 20:58:00,30.8,19.0,30.03,North,355,0.0,5.0,61,0.00,,---,0.26,VWS V14.01,2013-01-18 01:58:00,
2013-01-17 21:00:00,30.8,19.0,30.03,North,355,0.0,5.0,61,0.00,,---,0.26,VWS V14.01,2013-01-18 02:00:00,
2013-01-17 21:03:00,30.7,19.2,30.03,NE,40,3.0,4.0,62,0.00,,---,0.26,VWS V14.01,2013-01-18 02:03:00,
2013-01-17 21:05:00,30.7,19.2,30.03,NE,40,3.0,4.0,62,0.00,,---,0.26,VWS V14.01,2013-01-18 02:05:00,
2013-01-17 21:08:00,30.6,18.8,30.03,NNW,331,0.0,5.0,61,0.00,,---,0.26,VWS V14.01,2013-01-18 02:08:00,
2013-01-17 21:10:00,30.6,18.8,30.03,NNW,331,0.0,5.0,61,0.00,,---,0.26,VWS V14.01,2013-01-18 02:10:00,
2013-01-17 21:13:00,30.6,19.1,30.04,NNW,339,0.0,4.0,62,0.00,,---,0.26,VWS V14.01,2013-01-18 02:13:00,
2013-01-17 21:15:00,30.6,19.1,30.04,NNW,339,0.0,4.0,62,0.00,,---,0.26,VWS V14.01,2013-01-18 02:15:00,
2013-01-17 21:18:00,30.5,19.0,30.03,WNW,295,5.0,7.0,62,0.00,,---,0.26,VWS V14.01,2013-01-18 02:18:00,
2013-01-17 21:20:00,30.5,19.0,30.03,WNW,295,5.0,7.0,62,0.00,,---,0.26,VWS V14.01,2013-01-18 02:20:00,
2013-01-17 21:23:00,30.5,19.4,30.04,WNW,296,0.0,5.0,63,0.00,,---,0.26,VWS V14.01,2013-01-18 02:23:00,
2013-01-17 21:25:00,30.5,19.4,30.04,WNW,296,0.0,5.0,63,0.00,,---,0.26,VWS V14.01,2013-01-18 02:25:00,
2013-01-17 21:28:00,30.4,18.6,30.03,NW,319,2.0,4.0,61,0.00,,---,0.26,VWS V14.01,2013-01-18 02:28:00,
2013-01-17 21:30:00,30.4,18.6,30.03,NW,319,2.0,4.0,61,0.00,,---,0.26,VWS V14.01,2013-01-18 02:30:00,
2013-01-17 21:33:00,30.3,18.5,30.04,NNW,336,2.0,5.0,61,0.00,,---,0.26,VWS V14.01,2013-01-18 02:33:00,
2013-01-17 21:35:00,30.3,18.5,30.04,NNW,336,2.0,5.0,61,0.00,,---,0.26,VWS V14.01,2013-01-18 02:35:00,
2013-01-17 21:38:00,30.3,18.5,30.04,NW,314,0.0,7.0,61,0.00,,---,0.26,VWS V14.01,2013-01-18 02:38:00,
2013-01-17 21:40:00,30.3,18.5,30.04,NW,314,0.0,7.0,61,0.00,,---,0.26,VWS V14.01,2013-01-18 02:40:00,
2013-01-17 21:43:00,30.2,18.0,30.04,NW,314,0.0,7.0,60,0.00,,---,0.26,VWS V14.01,2013-01-18 02:43:00,
2013-01-17 21:45:00,30.2,18.0,30.04,NW,314,0.0,7.0,60,0.00,,---,0.26,VWS V14.01,2013-01-18 02:45:00,
2013-01-17 21:48:00,30.2,18.4,30.03,WNW,297,2.0,3.0,61,0.00,,---,0.26,VWS V14.01,2013-01-18 02:48:00,
2013-01-17 21:50:00,30.2,18.4,30.03,WNW,297,2.0,3.0,61,0.00,,---,0.26,VWS V14.01,2013-01-18 02:50:00,
2013-01-17 21:53:00,30.1,17.5,30.03,NW,316,1.0,9.0,59,0.00,,---,0.26,VWS V14.01,2013-01-18 02:53:00,
2013-01-17 21:55:00,30.1,17.5,30.03,NW,316,1.0,9.0,59,0.00,,---,0.26,VWS V14.01,2013-01-18 02:55:00,
2013-01-17 21:58:00,30.1,17.5,30.03,NNE,14,0.0,3.0,59,0.00,,---,0.26,VWS V14.01,2013-01-18 02:58:00,
2013-01-17 22:00:00,30.1,17.5,30.03,NNE,14,0.0,3.0,59,0.00,,---,0.26,VWS V14.01,2013-01-18 03:00:00,
2013-01-17 22:03:00,30.0,17.8,30.02,NNE,15,0.0,3.0,60,0.00,,---,0.26,VWS V14.01,2013-01-18 03:03:00,
2013-01-17 22:05:00,30.0,17.8,30.02,NNE,15,0.0,3.0,60,0.00,,---,0.26,VWS V14.01,2013-01-18 03:05:00,
2013-01-17 22:08:00,29.9,17.7,30.02,NNW,341,0.0,4.0,60,0.00,,---,0.26,VWS V14.01,2013-01-18 03:08:00,
2013-01-17 22:10:00,29.9,17.7,30.02,NNW,341,0.0,4.0,60,0.00,,---,0.26,VWS V14.01,2013-01-18 03:10:00,
2013-01-17 22:13:00,29.9,16.9,30.02,WNW,301,0.0,6.0,58,0.00,,---,0.26,VWS V14.01,2013-01-18 03:13:00,
2013-01-17 22:15:00,29.9,16.9,30.02,WNW,301,0.0,6.0,58,0.00,,---,0.26,VWS V14.01,2013-01-18 03:15:00,
2013-01-17 22:18:00,29.8,16.8,30.02,WSW,255,0.0,2.0,58,0.00,,---,0.26,VWS V14.01,2013-01-18 03:18:00,
2013-01-17 22:20:00,29.8,16.8,30.02,WSW,255,0.0,2.0,58,0.00,,---,0.26,VWS V14.01,2013-01-18 03:20:00,
2013-01-17 22:23:00,29.7,16.4,30.03,NW,317,0.0,7.0,57,0.00,,---,0.26,VWS V14.01,2013-01-18 03:23:00,
2013-01-17 22:25:00,29.7,16.3,30.03,NW,317,0.0,7.0,57,0.00,,---,0.26,VWS V14.01,2013-01-18 03:25:00,
2013-01-17 22:28:00,29.7,16.4,30.03,North,355,0.0,4.0,57,0.00,,---,0.26,VWS V14.01,2013-01-18 03:28:00,
2013-01-17 22:30:00,29.7,16.3,30.03,North,355,0.0,4.0,57,0.00,,---,0.26,VWS V14.01,2013-01-18 03:30:00,
2013-01-17 22:33:00,29.6,16.6,30.04,NNW,327,0.0,9.0,58,0.00,,---,0.26,VWS V14.01,2013-01-18 03:33:00,
2013-01-17 22:35:00,29.6,16.6,30.04,NNW,327,0.0,9.0,58,0.00,,---,0.26,VWS V14.01,2013-01-18 03:35:00,
2013-01-17 22:38:00,29.6,16.6,30.04,WNW,290,2.0,5.0,58,0.00,,---,0.26,VWS V14.01,2013-01-18 03:38:00,
2013-01-17 22:40:00,29.6,16.6,30.04,WNW,290,2.0,5.0,58,0.00,,---,0.26,VWS V14.01,2013-01-18 03:40:00,
2013-01-17 22:43:00,29.5,15.3,30.05,West,264,0.0,7.0,55,0.00,,---,0.26,VWS V14.01,2013-01-18 03:43:00,
2013-01-17 22:45:00,29.5,15.3,30.05,West,264,0.0,7.0,55,0.00,,---,0.26,VWS V14.01,2013-01-18 03:45:00,
2013-01-17 22:48:00,29.4,15.2,30.05,WNW,293,6.0,13.0,55,0.00,,---,0.26,VWS V14.01,2013-01-18 03:48:00,
2013-01-17 22:50:00,29.4,15.2,30.05,WNW,293,6.0,13.0,55,0.00,,---,0.26,VWS V14.01,2013-01-18 03:50:00,
2013-01-17 22:53:00,29.3,15.1,30.04,WNW,300,5.0,9.0,55,0.00,,---,0.26,VWS V14.01,2013-01-18 03:53:00,
2013-01-17 22:55:00,29.3,15.1,30.04,WNW,300,5.0,9.0,55,0.00,,---,0.26,VWS V14.01,2013-01-18 03:55:00,
2013-01-17 22:58:00,29.2,15.5,30.04,WNW,294,1.0,5.0,56,0.00,,---,0.26,VWS V14.01,2013-01-18 03:58:00,
2013-01-17 23:00:00,29.2,15.5,30.04,WNW,294,1.0,5.0,56,0.00,,---,0.26,VWS V14.01,2013-01-18 04:00:00,
2013-01-17 23:03:00,29.1,14.5,30.04,NNW,346,0.0,4.0,54,0.00,,---,0.26,VWS V14.01,2013-01-18 04:03:00,
2013-01-17 23:05:00,29.1,14.5,30.04,NNW,346,0.0,4.0,54,0.00,,---,0.26,VWS V14.01,2013-01-18 04:05:00,
2013-01-17 23:08:00,29.0,14.0,30.04,NW,325,4.0,9.0,53,0.00,,---,0.26,VWS V14.01,2013-01-18 04:08:00,
2013-01-17 23:10:00,29.0,14.0,30.04,NW,325,4.0,9.0,53,0.00,,---,0.26,VWS V14.01,2013-01-18 04:10:00,
2013-01-17 23:13:00,28.9,13.1,30.02,NNW,344,5.0,10.0,51,0.00,,---,0.26,VWS V14.01,2013-01-18 04:13:00,
2013-01-17 23:15:00,28.9,13.1,30.02,NNW,344,5.0,10.0,51,0.00,,---,0.26,VWS V14.01,2013-01-18 04:15:00,
2013-01-17 23:18:00,28.8,13.8,30.02,NNW,327,0.0,12.0,53,0.00,,---,0.26,VWS V14.01,2013-01-18 04:18:00,
2013-01-17 23:20:00,28.8,13.8,30.02,NNW,327,0.0,12.0,53,0.00,,---,0.26,VWS V14.01,2013-01-18 04:20:00,
2013-01-17 23:23:00,28.7,13.3,30.01,NNE,13,2.0,4.0,52,0.00,,---,0.26,VWS V14.01,2013-01-18 04:23:00,
2013-01-17 23:25:00,28.7,13.3,30.01,NNE,13,2.0,4.0,52,0.00,,---,0.26,VWS V14.01,2013-01-18 04:25:00,
2013-01-17 23:28:00,28.7,13.3,30.00,NW,321,0.0,4.0,52,0.00,,---,0.26,VWS V14.01,2013-01-18 04:28:00,
2013-01-17 23:30:00,28.7,13.3,30.00,NW,321,0.0,4.0,52,0.00,,---,0.26,VWS V14.01,2013-01-18 04:30:00,
2013-01-17 23:33:00,28.6,14.1,30.00,WNW,288,4.0,7.0,54,0.00,,---,0.26,VWS V14.01,2013-01-18 04:33:00,
2013-01-17 23:35:00,28.6,14.1,30.00,WNW,288,4.0,7.0,54,0.00,,---,0.26,VWS V14.01,2013-01-18 04:35:00,
2013-01-17 23:38:00,28.5,13.1,30.00,West,280,1.0,4.0,52,0.00,,---,0.26,VWS V14.01,2013-01-18 04:38:00,
2013-01-17 23:40:00,28.5,13.1,30.00,West,280,1.0,4.0,52,0.00,,---,0.26,VWS V14.01,2013-01-18 04:40:00,
2013-01-17 23:43:00,28.4,12.6,29.99,SW,236,3.0,10.0,51,0.00,,---,0.26,VWS V14.01,2013-01-18 04:43:00,
2013-01-17 23:45:00,28.4,12.6,29.99,SW,236,3.0,10.0,51,0.00,,---,0.26,VWS V14.01,2013-01-18 04:45:00,
2013-01-17 23:48:00,28.4,13.0,30.00,WNW,302,0.0,9.0,52,0.00,,---,0.26,VWS V14.01,2013-01-18 04:48:00,
2013-01-17 23:50:00,28.4,13.0,30.00,WNW,302,0.0,9.0,52,0.00,,---,0.26,VWS V14.01,2013-01-18 04:50:00,
2013-01-17 23:53:00,28.4,13.0,30.01,WSW,250,0.0,6.0,52,0.00,,---,0.26,VWS V14.01,2013-01-18 04:53:00,
2013-01-17 23:55:00,28.4,13.0,30.01,WSW,250,0.0,6.0,52,0.00,,---,0.26,VWS V14.01,2013-01-18 04:55:00,
2013-01-17 23:58:00,28.4,13.0,30.01,SSW,198,0.0,3.0,52,0.00,,---,0.00,VWS V14.01,2013-01-18 04:58:00,